Date String (YYYY-MM-DD hh:mm:ss) UTC,Instrument flags,absolute air pressure of the measurement (hPa),sample flow rate (lpm),inlet stack bypass flow (lpm),air temperature of the measurement (°C),ambient temperature measured by the external sensor (°C),aerosol sample conditioner tube jacket temperature (°C),OPC LED temperature (°C),internal box temperature (°C),relative humidity of the measurement (%),span deviation,mass concentration of particles derived from Lorenz-Mie calculation of OPC scattering (μg/m³),mass concentration of particles derived from Lorenz-Mie calculation of OPC scattering (μg/m³),mass concentration of particles derived from Lorenz-Mie calculation of OPC scattering (μg/m³)
DateTimeUTC,F1_M11,P_M11,Q1_M11,Q2_M11,T1_M11,T2_M11,T3_M11,T4_M11,T5_M11,U1_M11,ZSPAN_M11,X0_M11,X2_M11,X1_M11
2023-10-23 00:00:00,SystemResetWarning,0824.3,5.01,000.00,028.4,024.9,000.0,036.7,030.1,16.0,0000.0,0020.34,0005.25,0003.44
2023-10-23 00:01:00,SystemResetWarning,0824.3,5.00,000.00,028.4,025.0,000.0,036.7,029.9,16.1,0000.0,0019.65,0005.20,0003.43
2023-10-23 00:02:00,SystemResetWarning,0824.3,4.99,000.00,028.3,025.4,000.0,036.7,029.9,16.2,0000.0,0018.37,0005.15,0003.43
2023-10-23 00:03:00,SystemResetWarning,0824.3,5.00,000.00,028.3,025.7,000.0,036.7,029.9,16.1,0000.0,0018.72,0005.19,0003.43
2023-10-23 00:04:00,SystemResetWarning,0824.3,5.00,000.00,028.3,026.1,000.0,036.8,030.0,16.1,0000.0,0017.90,0005.19,0003.42
2023-10-23 00:05:00,SystemResetWarning,0824.3,4.99,000.00,028.4,026.4,000.0,036.8,030.1,16.0,0000.0,0017.74,0005.16,0003.41
2023-10-23 00:06:00,SystemResetWarning,0824.3,4.99,000.00,028.4,026.7,000.0,036.8,030.1,15.9,0000.0,0017.91,0005.14,0003.40
2023-10-23 00:07:00,SystemResetWarning,0824.4,5.00,000.00,028.4,027.0,000.0,036.8,030.2,16.1,0000.0,0017.68,0005.10,0003.39
2023-10-23 00:08:00,SystemResetWarning,0824.3,5.00,000.00,028.5,027.2,000.0,036.8,030.3,16.1,0000.0,0017.90,0005.10,0003.38
2023-10-23 00:09:00,SystemResetWarning,0824.4,5.00,000.00,028.5,027.3,000.0,036.8,030.3,16.0,0000.0,0018.32,0005.14,0003.38
2023-10-23 00:10:00,SystemResetWarning,0824.4,5.00,000.00,028.6,027.5,000.0,036.9,030.4,15.9,0000.0,0018.26,0005.15,0003.38
2023-10-23 00:11:00,SystemResetWarning,0824.4,5.00,000.00,028.6,026.9,000.0,036.9,030.4,15.8,0000.0,0018.47,0005.13,0003.38
2023-10-23 00:12:00,SystemResetWarning,0824.4,4.99,000.00,028.5,024.8,000.0,036.8,030.1,15.8,0000.0,0019.45,0005.13,0003.39
2023-10-23 00:13:00,SystemResetWarning,0824.4,5.01,000.00,028.4,023.8,000.0,036.7,029.9,15.8,0000.0,0019.43,0005.14,0003.38
2023-10-23 00:14:00,SystemResetWarning,0824.4,5.01,000.00,028.3,023.9,000.0,036.7,029.7,15.9,0000.0,0020.06,0005.14,0003.38
2023-10-23 00:15:00,SystemResetWarning,0824.4,5.00,000.00,028.2,024.3,000.0,036.7,029.6,15.9,0000.0,0019.77,0005.11,0003.39
2023-10-23 00:16:00,SystemResetWarning,0824.4,5.00,000.00,028.1,024.8,000.0,036.7,029.7,15.9,0000.0,0019.76,0005.09,0003.39
2023-10-23 00:17:00,SystemResetWarning,0824.4,5.00,000.00,028.1,025.3,000.0,036.7,029.7,15.9,0000.0,0020.47,0005.08,0003.40
2023-10-23 00:18:00,SystemResetWarning,0824.4,5.00,000.00,028.1,025.7,000.0,036.7,029.8,16.0,0000.0,0019.96,0005.09,0003.39
2023-10-23 00:19:00,SystemResetWarning,0824.4,5.00,000.00,028.2,026.1,000.0,036.7,029.9,15.9,0000.0,0019.32,0005.05,0003.39
2023-10-23 00:20:00,SystemResetWarning,0824.4,5.00,000.00,028.2,026.4,000.0,036.7,029.9,15.9,0000.0,0019.35,0005.00,0003.39
2023-10-23 00:21:00,SystemResetWarning,0824.4,5.00,000.00,028.2,026.6,000.0,036.7,030.0,15.9,0000.0,0020.23,0005.01,0003.39
2023-10-23 00:22:00,SystemResetWarning,0824.4,5.01,000.00,028.3,026.9,000.0,036.7,030.1,15.8,0000.0,0020.51,0004.98,0003.39
2023-10-23 00:23:00,SystemResetWarning,0824.4,5.01,000.00,028.3,027.0,000.0,036.7,030.1,15.8,0000.0,0019.89,0005.03,0003.39
2023-10-23 00:24:00,SystemResetWarning,0824.4,4.99,000.00,028.3,027.2,000.0,036.7,030.2,15.8,0000.0,0020.51,0005.09,0003.39
2023-10-23 00:25:00,SystemResetWarning,0824.5,4.99,000.00,028.4,027.3,000.0,036.7,030.2,15.9,0000.0,0020.03,0005.09,0003.40
2023-10-23 00:26:00,SystemResetWarning,0824.4,4.99,000.00,028.4,027.4,000.0,036.8,030.3,15.8,0000.0,0020.85,0005.21,0003.41
2023-10-23 00:27:00,SystemResetWarning,0824.5,5.00,000.00,028.5,027.5,000.0,036.8,030.3,15.7,0000.0,0020.60,0005.30,0003.43
2023-10-23 00:28:00,SystemResetWarning,0824.5,5.00,000.00,028.5,027.5,000.0,036.8,030.4,15.7,0000.0,0020.33,0005.35,0003.45
2023-10-23 00:29:00,SystemResetWarning,0824.5,5.00,000.00,028.5,026.1,000.0,036.8,030.3,15.6,0000.0,0020.66,0005.37,0003.45
2023-10-23 00:30:00,SystemResetWarning,0824.5,5.00,000.00,028.5,024.8,000.0,036.7,030.1,15.7,0000.0,0021.86,0005.40,0003.46
2023-10-23 00:31:00,SystemResetWarning,0824.5,5.01,000.00,028.4,024.7,000.0,036.7,029.9,15.9,0000.0,0022.55,0005.41,0003.46
2023-10-23 00:32:00,SystemResetWarning,0824.5,5.01,000.00,028.3,024.9,000.0,036.7,029.8,16.0,0000.0,0023.14,0005.43,0003.47
2023-10-23 00:33:00,SystemResetWarning,0824.6,5.00,000.00,028.2,025.3,000.0,036.7,029.8,16.0,0000.0,0022.71,0005.51,0003.47
2023-10-23 00:34:00,SystemResetWarning,0824.6,5.00,000.00,028.2,025.7,000.0,036.7,029.9,16.1,0000.0,0022.96,0005.57,0003.47
2023-10-23 00:35:00,SystemResetWarning,0824.7,5.00,000.00,028.2,026.1,000.0,036.7,029.9,16.2,0000.0,0022.11,0005.61,0003.48
2023-10-23 00:36:00,SystemResetWarning,0824.7,5.01,000.00,028.3,026.4,000.0,036.7,030.0,16.1,0000.0,0021.61,0005.63,0003.49
2023-10-23 00:37:00,SystemResetWarning,0824.7,5.00,000.00,028.3,026.6,000.0,036.7,030.0,15.9,0000.0,0021.88,0005.60,0003.48
2023-10-23 00:38:00,SystemResetWarning,0824.7,4.99,000.00,028.3,026.8,000.0,036.8,030.1,15.9,0000.0,0023.11,0005.53,0003.48
2023-10-23 00:39:00,SystemResetWarning,0824.7,5.00,000.00,028.4,027.0,000.0,036.8,030.1,15.8,0000.0,0022.77,0005.47,0003.47
2023-10-23 00:40:00,SystemResetWarning,0824.7,5.00,000.00,028.4,027.1,000.0,036.8,030.2,15.7,0000.0,0023.26,0005.51,0003.48
2023-10-23 00:41:00,SystemResetWarning,0824.7,5.00,000.00,028.4,027.3,000.0,036.8,030.2,15.7,0000.0,0022.94,0005.54,0003.50
2023-10-23 00:42:00,SystemResetWarning,0824.7,5.00,000.00,028.5,027.4,000.0,036.8,030.3,15.7,0000.0,0022.37,0005.59,0003.50
2023-10-23 00:43:00,SystemResetWarning,0824.7,5.00,000.00,028.5,027.4,000.0,036.9,030.3,15.6,0000.0,0021.94,0005.53,0003.50
2023-10-23 00:44:00,SystemResetWarning,0824.7,5.00,000.00,028.5,025.8,000.0,036.8,030.2,15.7,0000.0,0022.10,0005.48,0003.49
2023-10-23 00:45:00,SystemResetWarning,0824.7,5.00,000.00,028.4,024.6,000.0,036.8,030.1,15.8,0000.0,0022.40,0005.42,0003.49
2023-10-23 00:46:00,SystemResetWarning,0824.7,5.01,000.00,028.4,024.5,000.0,036.7,029.9,15.9,0000.0,0021.86,0005.39,0003.49
2023-10-23 00:47:00,SystemResetWarning,0824.7,5.02,000.00,028.3,024.8,000.0,036.7,029.8,16.0,0000.0,0022.82,0005.39,0003.48
2023-10-23 00:48:00,SystemResetWarning,0824.7,4.99,000.00,028.2,025.2,000.0,036.7,029.8,16.1,0000.0,0022.23,0005.33,0003.47
2023-10-23 00:49:00,SystemResetWarning,0824.7,4.99,000.00,028.2,025.6,000.0,036.7,029.8,16.2,0000.0,0020.18,0005.24,0003.46
2023-10-23 00:50:00,SystemResetWarning,0824.7,5.00,000.00,028.2,026.0,000.0,036.7,029.9,16.2,0000.0,0019.65,0005.27,0003.46
2023-10-23 00:51:00,SystemResetWarning,0824.7,5.01,000.00,028.2,026.3,000.0,036.7,029.9,16.2,0000.0,0018.60,0005.20,0003.45
2023-10-23 00:52:00,SystemResetWarning,0824.7,5.01,000.00,028.3,026.5,000.0,036.8,030.0,16.2,0000.0,0018.81,0005.21,0003.44
2023-10-23 00:53:00,SystemResetWarning,0824.7,5.00,000.00,028.3,026.7,000.0,036.8,030.1,16.2,0000.0,0018.80,0005.23,0003.44
2023-10-23 00:54:00,SystemResetWarning,0824.7,5.00,000.00,028.3,026.9,000.0,036.8,030.1,16.2,0000.0,0018.58,0005.30,0003.45
2023-10-23 00:55:00,SystemResetWarning,0824.7,5.00,000.00,028.4,027.1,000.0,036.8,030.2,16.1,0000.0,0018.19,0005.30,0003.46
2023-10-23 00:56:00,SystemResetWarning,0824.7,5.00,000.00,028.4,027.2,000.0,036.8,030.2,16.1,0000.0,0017.54,0005.32,0003.46
2023-10-23 00:57:00,SystemResetWarning,0824.7,5.00,000.00,028.4,027.3,000.0,036.8,030.2,16.0,0000.0,0018.17,0005.29,0003.46
2023-10-23 00:58:00,SystemResetWarning,0824.7,5.00,000.00,028.5,027.4,000.0,036.8,030.3,16.0,0000.0,0017.30,0005.19,0003.45
2023-10-23 00:59:00,SystemResetWarning,0824.7,5.00,000.00,028.5,027.5,000.0,036.9,030.3,16.0,0000.0,0017.06,0005.11,0003.45
